Regional Weather Roundup
Issued by NWS State College, PA

Home | Current Version | Previous Version | Text Only | Print | Product List | Glossary Off
Versions: 1 2 3 4 5 6 7 8 9 10 11 12 13 14 15 16 17 18 19 20 21 22 23 24 25 26 27 28 29 30 31 32 33 34 35 36 37 38 39 40 41 42 43 44 45 46 47 48 49 50

000
ASUS41 KCTP 080310
RWRCTP

REGIONAL WEATHER ROUNDUP
NATIONAL WEATHER SERVICE STATE COLLEGE PA
1000 PM EST WED DEC 07 2016

Note: "fair" indicates few or no clouds below 12,000 feet with no
significant weather and/or obstructions to visibility.

* = STATION THAT DOES NOT REPORT PRECIPITATION /E.G. RAIN...SNOW...ETC/
    THUNDER OR FOG.

PAZ002>004-007>009-013>016-020>023-029>032-080400-
WESTERN PENNSYLVANIA

CITY           SKY/WX    TMP DP  RH WIND       PRES   REMARKS
ERIE           MOCLDY    34  21  59 SW13      30.01F
MEADVILLE      CLOUDY    32  20  61 SW8       30.00F
FRANKLIN*        N/A     32  19  59 SW7       30.02S
NEW CASTLE     CLOUDY    33  24  69 SW5       30.05S
BEAVER COUNTY  NOT AVBL
BUTLER*        CLOUDY    34  19  55 SW7       30.06S
PITTSBURGH INT CLOUDY    37  23  56 W6        30.05S
PITTSBURGH     CLOUDY    36  20  52 SW7       30.04S
INDIANA*       CLOUDY    32  25  74 CALM      30.06S
LATROBE        MOCLDY    34  27  75 SW6       30.05F
WASHINGTON CO* CLOUDY    36  21  55 SW6       30.06S
$$

PAZ004>006-010>012-017>019-024>028-033>037-041-042-045-046-049>053-080400-
CENTRAL PENNSYLVANIA

CITY           SKY/WX    TMP DP  RH WIND       PRES   REMARKS
BRADFORD       MOCLDY    29  22  75 VRB3      29.95S
DUBOIS         CLOUDY    29  19  66 SW8       29.98F
CLEARFIELD     PTCLDY    31  24  75 SW6       30.01F
JOHNSTOWN      CLOUDY    32  19  58 SW8       29.99F
ALTOONA        CLOUDY    35  22  58 W5        30.02F
STATE COLLEGE  NOT AVBL
WILLIAMSPORT   PTCLDY    35  32  88 CALM      30.02F
SELINSGROVE    CLOUDY    38  29  70 CALM      30.05R
FT INDIANTOWN  CLOUDY    36  33  88 NW3       30.04S
CAPITAL CITY   PTCLDY    38  27  64 SW3       30.06R
HARRISBURG     MOCLDY    39  32  76 NW7       30.05R
YORK           MOCLDY    29  29 100 CALM      30.05S
$$

PAZ038>040-043-044-047-048-054-055-060>062-067>071-080400-
EASTERN PENNSYLVANIA

CITY           SKY/WX    TMP DP  RH WIND       PRES   REMARKS
SCRANTON       CLOUDY    39  28  64 S3        29.99F
MOUNT POCONO   CLOUDY    31  28  89 W3        29.96F
ALLENTOWN      CLOUDY    37  30  75 W3        30.03S
QUAKERTOWN*    PTCLDY    32  32 100 CALM      30.04S
READING        PTCLDY    35  29  78 CALM      30.04R
LANCASTER      CLEAR     34  31  88 CALM      30.05S
COATESVILLE    CLEAR     32  28  86 W5        30.05S
POTTSTOWN      CLEAR     32  29  88 CALM      30.05S
BLUE BELL      CLEAR     32  32 100 CALM      30.04S
DOYLESTOWN     PTCLDY    36  32  85 CALM      30.03S
WILLOW GROVE   NOT AVBL
NORTH PHILA    CLEAR     36  33  89 CALM      30.07R
PHILADELPHIA   MOCLDY    37  29  72 CALM      30.07R
$$




USA.gov is the U.S. government's official web portal to all federal, state and local government web resources and services.